Change the Weather History Date:

Wednesday, July 25, 2012

  Actual Average Record
Temperature  
Mean Temperature 63 °F -  
Max Temperature 68 °F 70 °F 86 °F (2005)
Min Temperature 58 °F 57 °F 50 °F (2004)
Degree Days  
Heating Degree Days 2    
Growing Degree Days 13 (Base 50)    
Moisture  
Dew Point 59 °F    
Average Humidity 84    
Maximum Humidity 96    
Minimum Humidity 54    
Precipitation  
Precipitation 0.00 in - - ()
Sea Level Pressure  
Sea Level Pressure 29.80 in    
Wind  
Wind Speed 5 mph (SE)    
Max Wind Speed 14 mph    
Max Gust Speed 22 mph    
Visibility 9 miles    
Events Rain    
Averages and records for this station are not official NWS values.
T = Trace of Precipitation, MM = Missing Value Source: NWS Daily Summary

Daily Weather History Graph

Daily Weather History Graph

Search for Another Location

Airport or City:

Trip Planner

Search our weather history database for the weather conditions in past years. The results will help you decide how hot, cold, wet, or windy it might be!

Date:

Astronomy

Jul. 25, 2012 Rise Set
Actual Time 6:18 AM EDT 9:16 PM EDT
Civil Twilight 5:43 AM EDT 9:51 PM EDT
Nautical Twilight 4:58 AM EDT 10:35 PM EDT
Astronomical Twilight 4:05 AM EDT 11:28 PM EDT
Moon 1:47 PM EDT (7/25) No Moon Set
Length of Visible Light 16h 07m
Length of Day
14h 58m
Waxing Crescent, 42% of the Moon is Illuminated
Jul 25
Waxing Crescent
Jul 26
First Quarter
Aug 1
Full
Aug 9
Last Quarter
Aug 17
New

Hourly Weather History & Observations

Time (EDT) Temp. Dew Point Humidity Pressure Visibility Wind Dir Wind Speed Gust Speed Precip Events Conditions
12:00 AM 60.8 °F 57.4 °F 88% 30.00 in 10.0 mi SE 3.5 mph - N/A   Clear
12:14 AM 61.7 °F 58.3 °F 89% 30.00 in 10.0 mi Calm Calm - N/A   Clear
12:34 AM 61.0 °F 58.1 °F 90% 30.00 in 10.0 mi Calm Calm - N/A   Clear
12:54 AM 61.2 °F 57.7 °F 88% 30.00 in 10.0 mi Calm Calm - N/A   Clear
1:14 AM 61.7 °F 58.1 °F 88% 30.00 in 10.0 mi Calm Calm - N/A   Clear
1:54 AM 59.9 °F 57.4 °F 91% 29.99 in 10.0 mi SE 4.6 mph - N/A   Clear
2:14 AM 61.0 °F 57.6 °F 88% 29.98 in 10.0 mi SSE 5.8 mph - N/A   Clear
2:34 AM 61.0 °F 57.2 °F 87% 29.98 in 10.0 mi SE 5.8 mph - N/A   Clear
2:54 AM 61.2 °F 56.7 °F 85% 29.98 in 10.0 mi SE 4.6 mph - N/A   Clear
3:15 AM 60.8 °F 56.3 °F 85% 29.97 in 10.0 mi SE 5.8 mph - N/A   Clear
3:34 AM 61.2 °F 55.6 °F 82% 29.97 in 10.0 mi ESE 4.6 mph - N/A   Clear
3:54 AM 61.0 °F 55.4 °F 82% 29.96 in 10.0 mi ESE 5.8 mph - N/A   Clear
4:14 AM 59.9 °F 54.0 °F 81% 29.95 in 10.0 mi SSE 6.9 mph - N/A   Clear
4:34 AM 60.1 °F 53.4 °F 79% 29.95 in 10.0 mi SE 8.1 mph - N/A   Clear
4:54 AM 60.3 °F 53.1 °F 77% 29.94 in 10.0 mi ESE 6.9 mph - N/A   Clear
5:14 AM 59.7 °F 53.2 °F 79% 29.93 in 10.0 mi ESE 4.6 mph - N/A   Clear
5:35 AM 58.6 °F 53.1 °F 82% 29.93 in 10.0 mi SE 5.8 mph - N/A   Clear
5:54 AM 59.2 °F 53.4 °F 81% 29.92 in 10.0 mi ESE 6.9 mph - N/A   Clear
6:15 AM 59.2 °F 52.9 °F 80% 29.92 in 10.0 mi SE 5.8 mph - N/A   Clear
6:34 AM 59.0 °F 53.2 °F 81% 29.91 in 10.0 mi SE 6.9 mph - N/A   Clear
6:54 AM 59.4 °F 53.4 °F 81% 29.90 in 10.0 mi SE 6.9 mph - N/A   Clear
7:15 AM 60.4 °F 53.6 °F 78% 29.90 in 10.0 mi SE 5.8 mph - N/A   Clear
7:34 AM 62.6 °F 52.9 °F 70% 29.90 in 10.0 mi SE 8.1 mph - N/A   Clear
7:54 AM 62.6 °F 52.0 °F 68% 29.89 in 10.0 mi SE 6.9 mph - N/A   Clear
8:15 AM 64.0 °F 52.5 °F 66% 29.89 in 10.0 mi SE 8.1 mph - N/A   Clear
8:34 AM 65.7 °F 52.5 °F 62% 29.88 in 10.0 mi SSE 8.1 mph - N/A   Clear
8:54 AM 66.9 °F 52.3 °F 59% 29.88 in 10.0 mi SSE 9.2 mph - N/A   Clear
9:15 AM 67.6 °F 51.6 °F 56% 29.88 in 10.0 mi South 10.4 mph - N/A   Scattered Clouds
9:34 AM 68.2 °F 51.1 °F 54% 29.89 in 10.0 mi SSE 6.9 mph - N/A   Mostly Cloudy
9:54 AM 68.5 °F 51.3 °F 54% 29.90 in 10.0 mi South 3.5 mph - N/A   Overcast
10:15 AM 68.9 °F 51.8 °F 54% 29.90 in 10.0 mi South 6.9 mph - N/A   Overcast
10:34 AM 66.0 °F 54.7 °F 67% 29.91 in 7.0 mi SSW 4.6 mph - N/A Rain Heavy Rain
10:54 AM 64.0 °F 57.0 °F 78% 29.89 in 10.0 mi SSE 6.9 mph - N/A Rain Light Rain
11:14 AM 64.0 °F 57.6 °F 79% 29.87 in 10.0 mi SE 8.1 mph - N/A   Overcast
11:34 AM 63.3 °F 57.9 °F 83% 29.84 in 10.0 mi ESE 10.4 mph - N/A Rain Light Rain
11:54 AM 62.6 °F 57.9 °F 85% 29.84 in 10.0 mi ESE 9.2 mph - N/A Rain Light Rain
12:14 PM 62.6 °F 58.5 °F 86% 29.81 in 10.0 mi SE 11.5 mph - N/A Rain Light Rain
12:35 PM 63.0 °F 58.6 °F 86% 29.79 in 10.0 mi SE 11.5 mph 17.3 mph N/A   Mostly Cloudy
12:54 PM 62.6 °F 58.3 °F 86% 29.79 in 10.0 mi East 4.6 mph - N/A   Overcast
1:14 PM 63.0 °F 58.6 °F 86% 29.76 in 10.0 mi ESE 10.4 mph 17.3 mph N/A Rain Light Rain
1:35 PM 63.7 °F 59.0 °F 85% 29.82 in 10.0 mi NNE 3.5 mph - N/A Rain Rain
1:54 PM 62.6 °F 59.4 °F 89% 29.78 in 3.0 mi SE 6.9 mph - N/A Rain Rain
2:14 PM 62.6 °F 60.1 °F 91% 29.76 in 3.0 mi ESE 9.2 mph - N/A Rain Heavy Rain
2:34 PM 62.6 °F 59.9 °F 91% 29.76 in 10.0 mi East 5.8 mph - N/A Rain Rain
2:54 PM 63.5 °F 60.8 °F 91% 29.71 in 10.0 mi ESE 11.5 mph - N/A Rain Light Rain
3:15 PM 64.4 °F 61.2 °F 89% 29.77 in 4.0 mi SE 6.9 mph - N/A Rain Heavy Rain
3:34 PM 62.1 °F 60.6 °F 95% 29.70 in 2.0 mi SE 10.4 mph 21.9 mph N/A Rain Heavy Rain
3:54 PM 61.9 °F 60.3 °F 94% 29.68 in 7.0 mi ESE 12.7 mph - N/A Rain Light Rain
4:15 PM 62.4 °F 60.8 °F 94% 29.66 in 4.0 mi SE 12.7 mph 20.7 mph N/A Rain Light Rain
4:34 PM 64.2 °F 61.5 °F 91% 29.65 in 10.0 mi SE 10.4 mph 16.1 mph N/A   Overcast
4:54 PM 65.3 °F 61.7 °F 88% 29.64 in 10.0 mi SE 13.8 mph 18.4 mph N/A   Mostly Cloudy
5:15 PM 66.2 °F 62.6 °F 88% 29.63 in 10.0 mi SE 11.5 mph 17.3 mph N/A   Overcast
5:34 PM 66.6 °F 62.6 °F 87% 29.64 in 10.0 mi SE 6.9 mph - N/A   Overcast
5:54 PM 66.9 °F 63.1 °F 88% 29.64 in 10.0 mi SE 5.8 mph - N/A   Overcast
6:14 PM 66.7 °F 63.3 °F 89% 29.63 in 10.0 mi SE 4.6 mph - N/A   Overcast
6:34 PM 67.3 °F 63.5 °F 88% 29.63 in 10.0 mi Calm Calm - N/A   Overcast
6:55 PM 68.0 °F 63.7 °F 86% 29.63 in 10.0 mi SE 4.6 mph - N/A   Overcast
7:14 PM 68.0 °F 64.4 °F 88% 29.63 in 10.0 mi SE 3.5 mph - N/A   Overcast
7:34 PM 68.2 °F 64.4 °F 88% 29.63 in 10.0 mi East 3.5 mph - N/A   Overcast
7:54 PM 68.4 °F 64.4 °F 87% 29.63 in 10.0 mi ESE 3.5 mph - N/A   Overcast
8:14 PM 68.2 °F 64.8 °F 89% 29.62 in 10.0 mi Calm Calm - N/A   Mostly Cloudy
8:35 PM 67.8 °F 65.3 °F 92% 29.60 in 7.0 mi SE 4.6 mph - N/A Rain Light Rain
8:54 PM 67.5 °F 65.3 °F 93% 29.61 in 10.0 mi Calm Calm - N/A   Clear
9:14 PM 68.0 °F 65.3 °F 91% 29.62 in 10.0 mi Calm Calm - N/A   Scattered Clouds
9:34 PM 67.8 °F 65.7 °F 93% 29.60 in 10.0 mi Calm Calm - N/A   Clear
9:54 PM 67.1 °F 65.3 °F 94% 29.59 in 10.0 mi Calm Calm - N/A   Scattered Clouds
10:15 PM 67.5 °F 65.7 °F 94% 29.57 in 10.0 mi Calm Calm - N/A   Mostly Cloudy
10:34 PM 67.3 °F 65.8 °F 95% 29.57 in 7.0 mi SSE 3.5 mph - N/A   Overcast
10:54 PM 67.5 °F 66.2 °F 96% 29.59 in 10.0 mi South 3.5 mph - N/A   Overcast
11:15 PM 68.2 °F 66.4 °F 94% 29.61 in 10.0 mi South 3.5 mph - N/A   Overcast
11:34 PM 68.7 °F 66.9 °F 94% 29.62 in 10.0 mi Calm Calm - N/A   Overcast
11:54 PM 68.9 °F 66.9 °F 93% 29.62 in 7.0 mi Calm Calm - N/A   Overcast